Flag for Argentina Weather past 2 weeks in Salta, Salta, Argentina

Now
75 °F

Passing clouds.


Feels Like: 77 °F
Forecast: 64 / 85 °F
Wind: 5 mph from North

Location: Salta Aerodrome

Current Time: Oct 24, 2014 at 10:44:18 PM

Latest Report: Oct 24, 2014 at 10:00 PM


Visibility: N/A

Pressure: 30.12 "Hg

Humidity: 61%

Dew point: 61 °F

Location of SaltaLocation

Historic Weather in Salta — Graph

°F

Salta temperature yesterday

Maximum temperature yesterday: 84 °F (at 4:00 PM)
Minimum temperature yesterday: 57 °F (at 6:00 AM)
Average temperature yesterday: 69 °F

Past Weeks' High & Low Weather Summary

 TemperatureHumidityPressure
High93 °F (Oct 18, 3:00 PM)100% (Oct 20, 4:00 AM)30.27 "Hg (Oct 20, 4:00 AM)
Low55 °F (Oct 20, 7:00 AM)20% (Oct 18, 6:00 PM)29.68 "Hg (Oct 18, 4:00 PM)
Average70 °F71%30.08 "Hg
* Reported Oct 12 9:00 PM — Oct 24 10:00 PM, Salta, Weather by CustomWeather, © 2014

Note: Actual official high and low records may vary slightly from our data, if they occured in-between our weather recording intervals... More about our weather records

Advertising

Salta weather history for previous 24 hours

 ConditionsComfort  
Time TempWeatherWind HumidityBarometerVisibility
10:00 PM
Oct 24
75 °FPassing clouds.5 mph61%30.12 "HgN/A
9:00 PM75 °FPassing clouds.No wind61%30.09 "HgN/A
8:00 PM79 °FPassing clouds.5 mph51%30.07 "HgN/A
7:00 PM82 °FPassing clouds.8 mph42%30.04 "HgN/A
6:00 PM86 °FScattered clouds.9 mph35%30.01 "HgN/A
5:00 PM88 °FScattered clouds.12 mph33%30.01 "HgN/A
4:00 PM88 °FScattered clouds.7 mph31%30.04 "HgN/A
3:00 PM84 °FScattered clouds.8 mph40%30.07 "HgN/A
1:00 PM84 °FPassing clouds.3 mph43%30.12 "HgN/A
12:00 PM81 °FPassing clouds.3 mph54%30.15 "HgN/A
11:00 AM75 °FPassing clouds.2 mph61%30.18 "HgN/A
10:00 AM73 °FPassing clouds.2 mph65%30.18 "HgN/A
9:00 AM68 °FScattered clouds.No wind83%30.15 "HgN/A
8:00 AM64 °FScattered clouds.No wind88%30.15 "HgN/A
7:00 AM59 °FBroken clouds.No wind100%30.12 "HgN/A
6:00 AM61 °FPassing clouds.No wind94%30.12 "Hg5 mi
5:00 AM61 °FPassing clouds.No wind94%30.09 "HgN/A
4:00 AM63 °FMild.No wind94%30.09 "Hg4 mi
3:00 AM63 °FClear.No wind100%30.09 "Hg10 mi
2:00 AM64 °FClear.No wind94%30.09 "Hg10 mi
1:00 AM66 °FClear.No wind83%30.12 "Hg10 mi
12:00 AM66 °FThunderstorms. Passing clouds.2 mph88%30.15 "HgN/A
11:00 PM
Oct 23
66 °FPartly cloudy.5 mph88%30.18 "HgN/A
10:00 PM66 °FPassing clouds.8 mph88%30.18 "HgN/A
Weather by CustomWeather, © 2014

See weather overviewHow to use our weather pages